Zurück zum Katalog

IGS O-5

AktivMilitärSSO
NORAD 40538·PAYLOAD·🇯🇵 Japan

Gestartet Mar 26, 2015 von Tanegashima Space Center

Loading…

Nächste Überflüge (nächste 24 Stunden)

TLE

VeraltetSource: Mike McCants

Epoche: Aug 28, 2026, 21:25 UTC

1 40538U 15015A   26240.89276377 0.00000000  00000-0  00000-0 0    08
2 40538  97.3445 311.2271 0001099 305.7460  54.2538 15.27648071    03

Verfolge IGS O-5 in Echtzeit mit AllMySat

Download on the App Store